,,PA_Meas_PMT16A,,PR_Meas_QMR101_102,,RH_Meas_QMH101,,SR_Meas_QMS101,,TA_Meas_QMH101,,GenWind,,GenWind,
time,status,PA,status,PR,status,RH,status,SR,status,TA,status,DirAvg,status,SpdAvg,
2011-08-21, 00:00:05,VALID,918.75,VALID,0,VALID,96.2609,VALID,0,VALID,19.2153,VALID,86,VALID,0.617578,
2011-08-21, 00:01:05,VALID,918.769,VALID,0,VALID,96.1465,VALID,0,VALID,19.1763,VALID,86,VALID,0.291016,
2011-08-21, 00:02:05,VALID,918.769,VALID,0,VALID,96.177,VALID,0,VALID,19.1973,VALID,86,VALID,0.4625,
2011-08-21, 00:03:05,VALID,918.776,VALID,0,VALID,96.2609,VALID,0,VALID,19.2153,VALID,86,VALID,0.750391,
2011-08-21, 00:04:05,VALID,918.758,VALID,0,VALID,96.2304,VALID,0,VALID,19.2153,VALID,86,VALID,0.43125,
2011-08-21, 00:05:05,VALID,918.754,VALID,0,VALID,96.2761,VALID,0,VALID,19.2738,VALID,86,VALID,0.317187,
2011-08-21, 00:06:05,VALID,918.717,VALID,0,VALID,96.3524,VALID,0,VALID,19.3323,VALID,86,VALID,0.688281,
2011-08-21, 00:07:05,VALID,918.726,VALID,0,VALID,96.238,VALID,0,VALID,19.3323,VALID,87,VALID,0.677344,
2011-08-21, 00:08:05,VALID,918.705,VALID,0,VALID,96.1846,VALID,0,VALID,19.3518,VALID,86,VALID,0.453125,
2011-08-21, 00:09:04,VALID,918.689,VALID,0,VALID,96.2228,VALID,0,VALID,19.3908,VALID,87,VALID,0.766016,
2011-08-21, 00:10:04,VALID,918.67,VALID,0,VALID,96.2456,VALID,0,VALID,19.3893,VALID,86,VALID,0.932031,
2011-08-21, 00:11:04,VALID,918.669,VALID,0,VALID,96.0398,VALID,0,VALID,19.3698,VALID,87,VALID,0.494922,
2011-08-21, 00:12:04,VALID,918.665,VALID,0,VALID,95.8721,VALID,0,VALID,19.3113,VALID,87,VALID,0.642578,
2011-08-21, 00:13:04,VALID,918.669,VALID,0,VALID,95.8111,VALID,0.107441,VALID,19.2918,VALID,87,VALID,0.451953,
2011-08-21, 00:14:04,VALID,918.684,VALID,0,VALID,95.9026,VALID,0.107441,VALID,19.3113,VALID,86,VALID,0.837109,
2011-08-21, 00:15:04,VALID,918.664,VALID,0,VALID,95.9559,VALID,0,VALID,19.3308,VALID,86,VALID,0.375781,
2011-08-21, 00:16:04,VALID,918.646,VALID,0,VALID,95.7806,VALID,0.107441,VALID,19.3128,VALID,86,VALID,0.420703,
2011-08-21, 00:17:04,VALID,918.647,VALID,0,VALID,95.6129,VALID,0.107441,VALID,19.2348,VALID,86,VALID,0.646875,
2011-08-21, 00:18:04,VALID,918.664,VALID,0,VALID,95.8035,VALID,0,VALID,19.2738,VALID,86,VALID,0.339844,
2011-08-21, 00:19:04,VALID,918.638,VALID,0,VALID,95.9102,VALID,0.107441,VALID,19.2723,VALID,87,VALID,0.0191406,
2011-08-21, 00:20:04,VALID,918.648,VALID,0,VALID,95.9331,VALID,0,VALID,19.2933,VALID,86,VALID,0.687109,
2011-08-21, 00:21:04,VALID,918.649,VALID,0,VALID,95.8645,VALID,0.107441,VALID,19.2319,VALID,87,VALID,0.551562,
2011-08-21, 00:22:04,VALID,918.646,VALID,0,VALID,96.0474,VALID,0,VALID,19.3308,VALID,86,VALID,0.851563,
2011-08-21, 00:23:04,VALID,918.642,VALID,0,VALID,96.177,VALID,0.107441,VALID,19.4088,VALID,86,VALID,0.500781,
2011-08-21, 00:24:04,VALID,918.646,VALID,0,VALID,96.2151,VALID,0.107441,VALID,19.4883,VALID,86,VALID,0.435937,
2011-08-21, 00:25:04,VALID,918.633,VALID,0,VALID,96.2304,VALID,0,VALID,19.4883,VALID,86,VALID,0.782031,
2011-08-21, 00:26:04,VALID,918.636,VALID,0,VALID,96.116,VALID,0,VALID,19.4883,VALID,86,VALID,0.603906,
2011-08-21, 00:27:04,VALID,918.567,VALID,0,VALID,96.0627,VALID,0,VALID,19.4883,VALID,87,VALID,0.737109,
2011-08-21, 00:28:04,VALID,918.539,VALID,0,VALID,96.0017,VALID,0,VALID,19.5093,VALID,86,VALID,0.115234,
2011-08-21, 00:29:04,VALID,918.5,VALID,0,VALID,95.9407,VALID,0,VALID,19.4898,VALID,87,VALID,0.755469,
2011-08-21, 00:30:04,VALID,918.504,VALID,0,VALID,95.8873,VALID,0,VALID,19.4493,VALID,86,VALID,0.654688,
2011-08-21, 00:31:04,VALID,918.513,VALID,0,VALID,95.8035,VALID,0,VALID,19.4298,VALID,86,VALID,0.537891,
2011-08-21, 00:32:04,VALID,918.489,VALID,0,VALID,95.6739,VALID,0,VALID,19.3713,VALID,86,VALID,0.496094,
2011-08-21, 00:33:04,VALID,918.456,VALID,0,VALID,95.5214,VALID,0,VALID,19.3128,VALID,86,VALID,0.481641,
2011-08-21, 00:34:04,VALID,918.478,VALID,0,VALID,95.5138,VALID,0,VALID,19.2543,VALID,86,VALID,0.39375,
2011-08-21, 00:35:04,VALID,918.427,VALID,0,VALID,95.5519,VALID,0.107441,VALID,19.2153,VALID,86,VALID,0.349609,
2011-08-21, 00:36:04,VALID,918.435,VALID,0,VALID,95.59,VALID,0,VALID,19.1763,VALID,87,VALID,0.257813,
2011-08-21, 00:37:04,VALID,918.419,VALID,0,VALID,95.4909,VALID,0.107441,VALID,19.0969,VALID,86,VALID,0.525,
2011-08-21, 00:38:04,VALID,918.419,VALID,0,VALID,95.4604,VALID,0,VALID,19.0413,VALID,86,VALID,0.615234,
2011-08-21, 00:39:04,VALID,918.369,VALID,0,VALID,95.6815,VALID,0,VALID,19.0008,VALID,86,VALID,0.371484,
2011-08-21, 00:40:04,VALID,918.338,VALID,0,VALID,95.8416,VALID,0,VALID,19.0203,VALID,86,VALID,0.509375,
2011-08-21, 00:41:04,VALID,918.292,VALID,0,VALID,95.9483,VALID,0,VALID,19.0218,VALID,86,VALID,0.591016,
2011-08-21, 00:42:04,VALID,918.28,VALID,0,VALID,96.1084,VALID,0,VALID,19.0788,VALID,86,VALID,0.764453,
2011-08-21, 00:43:04,VALID,918.239,VALID,0,VALID,96.3066,VALID,0,VALID,19.1568,VALID,86,VALID,0.751562,
2011-08-21, 00:44:04,VALID,918.232,VALID,0,VALID,96.3752,VALID,0,VALID,19.1763,VALID,86,VALID,0.799609,
2011-08-21, 00:45:04,VALID,918.224,VALID,0,VALID,96.421,VALID,0,VALID,19.2363,VALID,86,VALID,1.04883,
2011-08-21, 00:46:04,VALID,918.199,VALID,0,VALID,96.4743,VALID,0,VALID,19.2543,VALID,86,VALID,1.29375,
2011-08-21, 00:47:04,VALID,918.199,VALID,0,VALID,96.4667,VALID,0,VALID,19.2543,VALID,174,VALID,1.57344,
2011-08-21, 00:48:04,VALID,918.152,VALID,0,VALID,96.4667,VALID,0,VALID,19.2738,VALID,180,VALID,1.39727,
2011-08-21, 00:49:04,VALID,918.182,VALID,0,VALID,96.4438,VALID,0,VALID,19.2543,VALID,180,VALID,1.1832,
2011-08-21, 00:50:04,VALID,918.152,VALID,0,VALID,96.4743,VALID,0,VALID,19.2948,VALID,180,VALID,1.05078,
2011-08-21, 00:51:04,VALID,918.128,VALID,0,VALID,96.4515,VALID,0,VALID,19.2933,VALID,165,VALID,1.31602,
2011-08-21, 00:52:04,VALID,918.105,VALID,0,VALID,96.4362,VALID,0,VALID,19.2933,VALID,165,VALID,1.45664,
2011-08-21, 00:53:04,VALID,918.064,VALID,0,VALID,96.4286,VALID,0,VALID,19.2948,VALID,165,VALID,1.22852,
2011-08-21, 00:54:04,VALID,918.063,VALID,0,VALID,96.3524,VALID,0,VALID,19.2753,VALID,165,VALID,0.866016,
2011-08-21, 00:55:04,VALID,918.04,VALID,0,VALID,96.36,VALID,0,VALID,19.2543,VALID,165,VALID,1.67109,
2011-08-21, 00:56:04,VALID,918.066,VALID,0,VALID,96.3447,VALID,0,VALID,19.2738,VALID,177,VALID,1.34883,
2011-08-21, 00:57:04,VALID,918.069,VALID,0,VALID,96.299,VALID,0,VALID,19.2348,VALID,177,VALID,0.976563,
2011-08-21, 00:58:04,VALID,918.053,VALID,0,VALID,96.3219,VALID,0,VALID,19.2543,VALID,177,VALID,0.846094,
2011-08-21, 00:59:04,VALID,918.052,VALID,0,VALID,96.3905,VALID,0,VALID,19.2738,VALID,159,VALID,1.49727,
2011-08-21, 01:00:04,VALID,918.091,VALID,0,VALID,96.3371,VALID,0,VALID,19.2948,VALID,161,VALID,0.866406,
2011-08-21, 01:01:04,VALID,918.088,VALID,0,VALID,96.3676,VALID,0,VALID,19.3143,VALID,161,VALID,1.26484,
2011-08-21, 01:02:04,VALID,918.095,VALID,0,VALID,96.3447,VALID,0,VALID,19.3338,VALID,161,VALID,1.06758,
2011-08-21, 01:03:04,VALID,918.048,VALID,0,VALID,96.3371,VALID,0,VALID,19.3338,VALID,161,VALID,1.08281,
2011-08-21, 01:04:04,VALID,918.032,VALID,0,VALID,96.3142,VALID,0,VALID,19.3128,VALID,161,VALID,1.0332,
2011-08-21, 01:05:04,VALID,918.042,VALID,0,VALID,96.3447,VALID,0,VALID,19.3533,VALID,161,VALID,0.783203,
2011-08-21, 01:06:04,VALID,918.039,VALID,0,VALID,96.3219,VALID,0,VALID,19.3518,VALID,161,VALID,1.15,
2011-08-21, 01:07:04,VALID,918.061,VALID,0,VALID,96.2761,VALID,0,VALID,19.3323,VALID,161,VALID,0.349219,
2011-08-21, 01:08:04,VALID,918.042,VALID,0,VALID,96.238,VALID,0,VALID,19.3533,VALID,161,VALID,0.852734,
2011-08-21, 01:09:04,VALID,918.023,VALID,0,VALID,96.2609,VALID,0,VALID,19.3728,VALID,157,VALID,0.551953,
2011-08-21, 01:10:04,VALID,918.024,VALID,0,VALID,96.2151,VALID,0,VALID,19.3518,VALID,182,VALID,1.37383,
2011-08-21, 01:11:04,VALID,918,VALID,0,VALID,96.2761,VALID,0,VALID,19.3713,VALID,172,VALID,1.15,
2011-08-21, 01:12:04,VALID,918.026,VALID,0,VALID,96.2304,VALID,0.107441,VALID,19.3908,VALID,147,VALID,1.17969,
2011-08-21, 01:13:04,VALID,918.006,VALID,0,VALID,96.1846,VALID,0,VALID,19.3908,VALID,147,VALID,0.660937,
2011-08-21, 01:14:04,VALID,917.961,VALID,0,VALID,96.1846,VALID,0,VALID,19.4103,VALID,139,VALID,1.13516,
2011-08-21, 01:15:04,VALID,917.939,VALID,0,VALID,96.1846,VALID,0,VALID,19.3908,VALID,134,VALID,1.18789,
2011-08-21, 01:16:04,VALID,917.9,VALID,0,VALID,96.1465,VALID,0,VALID,19.4103,VALID,145,VALID,0.870313,
2011-08-21, 01:17:04,VALID,917.889,VALID,0,VALID,96.1236,VALID,0,VALID,19.4103,VALID,149,VALID,0.987891,
2011-08-21, 01:18:04,VALID,917.851,VALID,0,VALID,96.1313,VALID,0.107441,VALID,19.4493,VALID,164,VALID,1.24102,
2011-08-21, 01:19:04,VALID,917.817,VALID,0,VALID,96.1008,VALID,0,VALID,19.4493,VALID,164,VALID,0.754297,
2011-08-21, 01:20:04,VALID,917.809,VALID,0,VALID,96.0703,VALID,0,VALID,19.4688,VALID,162,VALID,1.08672,
2011-08-21, 01:21:04,VALID,917.828,VALID,0,VALID,96.0627,VALID,0,VALID,19.4883,VALID,156,VALID,1.16406,
2011-08-21, 01:22:04,VALID,917.809,VALID,0,VALID,96.0779,VALID,0,VALID,19.5063,VALID,157,VALID,1.01211,
2011-08-21, 01:23:04,VALID,917.815,VALID,0,VALID,95.9864,VALID,0,VALID,19.5273,VALID,157,VALID,0.696875,
2011-08-21, 01:24:04,VALID,917.793,VALID,0,VALID,95.9254,VALID,0,VALID,19.5273,VALID,157,VALID,1.01758,
2011-08-21, 01:25:04,VALID,917.795,VALID,0,VALID,95.8492,VALID,0.107441,VALID,19.5273,VALID,158,VALID,0.980859,
2011-08-21, 01:26:04,VALID,917.786,VALID,0,VALID,95.773,VALID,0,VALID,19.5273,VALID,158,VALID,0.761719,
2011-08-21, 01:27:04,VALID,917.799,VALID,0,VALID,95.6662,VALID,0,VALID,19.5078,VALID,158,VALID,1.18906,
2011-08-21, 01:28:04,VALID,917.787,VALID,0,VALID,95.6357,VALID,0,VALID,19.5468,VALID,158,VALID,0.857422,
2011-08-21, 01:29:04,VALID,917.814,VALID,0,VALID,95.5976,VALID,0.107441,VALID,19.5648,VALID,159,VALID,0.667188,
2011-08-21, 01:30:04,VALID,917.798,VALID,0,VALID,95.5138,VALID,0,VALID,19.5663,VALID,160,VALID,1.01094,
2011-08-21, 01:31:04,VALID,917.812,VALID,0,VALID,95.3842,VALID,0,VALID,19.5663,VALID,160,VALID,0.932813,
2011-08-21, 01:32:04,VALID,917.793,VALID,0,VALID,95.2393,VALID,0,VALID,19.5468,VALID,153,VALID,0.822266,
2011-08-21, 01:33:04,VALID,917.777,VALID,0,VALID,95.1555,VALID,0,VALID,19.5663,VALID,167,VALID,1.05664,
2011-08-21, 01:34:04,VALID,917.773,VALID,0,VALID,95.064,VALID,0,VALID,19.5468,VALID,167,VALID,1.01211,
2011-08-21, 01:35:04,VALID,917.753,VALID,0,VALID,95.0411,VALID,0,VALID,19.5663,VALID,160,VALID,1.12617,
2011-08-21, 01:36:04,VALID,917.773,VALID,0,VALID,94.9801,VALID,0,VALID,19.5468,VALID,160,VALID,0.840234,
2011-08-21, 01:37:04,VALID,917.77,VALID,0,VALID,94.881,VALID,0,VALID,19.5078,VALID,160,VALID,0.435937,
2011-08-21, 01:38:04,VALID,917.761,VALID,0,VALID,94.7133,VALID,0,VALID,19.4493,VALID,160,VALID,0.380859,
2011-08-21, 01:39:04,VALID,917.761,VALID,0,VALID,94.6066,VALID,0,VALID,19.3908,VALID,160,VALID,0.616797,
2011-08-21, 01:40:04,VALID,917.722,VALID,0,VALID,94.6523,VALID,0,VALID,19.3533,VALID,160,VALID,0.919922,
2011-08-21, 01:41:04,VALID,917.732,VALID,0,VALID,94.6447,VALID,0,VALID,19.2543,VALID,160,VALID,0.548437,
2011-08-21, 01:42:04,VALID,917.692,VALID,0,VALID,94.7133,VALID,0,VALID,19.2153,VALID,160,VALID,0.678125,
2011-08-21, 01:43:04,VALID,917.735,VALID,0,VALID,94.8658,VALID,0,VALID,19.1763,VALID,160,VALID,0.733984,
2011-08-21, 01:44:04,VALID,917.719,VALID,0,VALID,95.0716,VALID,0,VALID,19.1568,VALID,150,VALID,0.542578,
2011-08-21, 01:45:04,VALID,917.7,VALID,0,VALID,95.1631,VALID,0,VALID,19.1373,VALID,156,VALID,0.503516,
2011-08-21, 01:46:04,VALID,917.738,VALID,0,VALID,95.2622,VALID,0,VALID,19.1178,VALID,153,VALID,1.01719,
2011-08-21, 01:47:04,VALID,917.728,VALID,0,VALID,95.2851,VALID,0,VALID,19.0788,VALID,162,VALID,0.284375,
2011-08-21, 01:48:04,VALID,917.707,VALID,0,VALID,95.3613,VALID,0,VALID,19.0593,VALID,155,VALID,0.79375,
2011-08-21, 01:49:04,VALID,917.706,VALID,0,VALID,95.4223,VALID,0,VALID,19.0203,VALID,144,VALID,0.960938,
2011-08-21, 01:50:04,VALID,917.722,VALID,0,VALID,95.5214,VALID,0,VALID,18.9994,VALID,125,VALID,0.974219,
2011-08-21, 01:51:04,VALID,917.67,VALID,0,VALID,95.6281,VALID,0,VALID,19.0008,VALID,125,VALID,0.853125,
2011-08-21, 01:52:04,VALID,917.643,VALID,0,VALID,95.7806,VALID,0,VALID,19.0398,VALID,125,VALID,0.985547,
2011-08-21, 01:53:04,VALID,917.604,VALID,0,VALID,95.9102,VALID,0,VALID,19.0398,VALID,165,VALID,1.01484,
2011-08-21, 01:54:04,VALID,917.581,VALID,0,VALID,95.9178,VALID,0,VALID,19.0398,VALID,162,VALID,0.634375,
2011-08-21, 01:55:04,VALID,917.6,VALID,0,VALID,95.9254,VALID,0,VALID,19.0398,VALID,162,VALID,0.258203,
2011-08-21, 01:56:04,VALID,917.607,VALID,0,VALID,95.7654,VALID,0,VALID,19.0008,VALID,162,VALID,0.754297,
2011-08-21, 01:57:04,VALID,917.623,VALID,0,VALID,95.9407,VALID,0,VALID,19.0008,VALID,146,VALID,0.524609,
2011-08-21, 01:58:04,VALID,917.603,VALID,0,VALID,95.9559,VALID,0,VALID,19.0203,VALID,144,VALID,0.503516,
2011-08-21, 01:59:04,VALID,917.596,VALID,0,VALID,95.9864,VALID,0,VALID,19.0203,VALID,144,VALID,0.227344,
2011-08-21, 02:00:04,VALID,917.625,VALID,0,VALID,95.9407,VALID,0,VALID,18.9814,VALID,144,VALID,0.141406,
2011-08-21, 02:01:04,VALID,917.612,VALID,0,VALID,95.9712,VALID,0,VALID,18.9619,VALID,144,VALID,0.323438,
2011-08-21, 02:02:04,VALID,917.602,VALID,0,VALID,96.0093,VALID,0,VALID,18.9828,VALID,144,VALID,0.00195313,
2011-08-21, 02:03:04,VALID,917.624,VALID,0,VALID,95.9941,VALID,0,VALID,18.9424,VALID,144,VALID,0.312891,
2011-08-21, 02:04:04,VALID,917.58,VALID,0,VALID,95.9559,VALID,0,VALID,18.9438,VALID,144,VALID,0.0410156,
2011-08-21, 02:05:04,VALID,917.598,VALID,0,VALID,95.9864,VALID,0,VALID,18.9229,VALID,144,VALID,0.226953,
2011-08-21, 02:06:04,VALID,917.621,VALID,0,VALID,96.0322,VALID,0,VALID,18.9034,VALID,144,VALID,0,
2011-08-21, 02:07:04,VALID,917.619,VALID,0,VALID,95.9941,VALID,0,VALID,18.8644,VALID,144,VALID,0.257813,
2011-08-21, 02:08:04,VALID,917.639,VALID,0,VALID,95.9331,VALID,0,VALID,18.8254,VALID,144,VALID,0.1125,
2011-08-21, 02:09:04,VALID,917.617,VALID,0,VALID,95.8873,VALID,0,VALID,18.7864,VALID,144,VALID,0.0453125,
2011-08-21, 02:10:04,VALID,917.628,VALID,0,VALID,95.7958,VALID,0,VALID,18.707,VALID,144,VALID,0.410156,
2011-08-21, 02:11:04,VALID,917.615,VALID,0,VALID,95.8721,VALID,0,VALID,18.6889,VALID,144,VALID,0.209375,
2011-08-21, 02:12:04,VALID,917.604,VALID,0,VALID,95.895,VALID,0.107441,VALID,18.6694,VALID,144,VALID,0,
2011-08-21, 02:13:04,VALID,917.608,VALID,0,VALID,95.8492,VALID,0,VALID,18.6109,VALID,144,VALID,0.620313,
2011-08-21, 02:14:04,VALID,917.584,VALID,0,VALID,95.9407,VALID,0,VALID,18.5914,VALID,144,VALID,0.348828,
2011-08-21, 02:15:04,VALID,917.566,VALID,0,VALID,96.0855,VALID,0,VALID,18.6304,VALID,144,VALID,0.522656,
2011-08-21, 02:16:04,VALID,917.547,VALID,0,VALID,96.2075,VALID,0,VALID,18.6485,VALID,144,VALID,0.414453,
2011-08-21, 02:17:04,VALID,917.551,VALID,0,VALID,96.2609,VALID,0,VALID,18.6694,VALID,144,VALID,0.948828,
2011-08-21, 02:18:04,VALID,917.569,VALID,0,VALID,96.3142,VALID,0,VALID,18.6485,VALID,159,VALID,0.93125,
2011-08-21, 02:19:04,VALID,917.532,VALID,0,VALID,96.3295,VALID,0,VALID,18.6304,VALID,153,VALID,0.817969,
2011-08-21, 02:20:04,VALID,917.524,VALID,0,VALID,96.3829,VALID,0,VALID,18.6109,VALID,153,VALID,0.438672,
2011-08-21, 02:21:04,VALID,917.53,VALID,0,VALID,96.3752,VALID,0.107441,VALID,18.5914,VALID,153,VALID,0.500781,
2011-08-21, 02:22:04,VALID,917.538,VALID,0,VALID,96.36,VALID,0,VALID,18.5525,VALID,153,VALID,0.257422,
2011-08-21, 02:23:04,VALID,917.505,VALID,0,VALID,96.4286,VALID,0,VALID,18.5135,VALID,153,VALID,0.468359,
2011-08-21, 02:24:04,VALID,917.502,VALID,0,VALID,96.4819,VALID,0,VALID,18.533,VALID,153,VALID,0.525391,
2011-08-21, 02:25:04,VALID,917.508,VALID,0,VALID,96.5734,VALID,0,VALID,18.533,VALID,153,VALID,0.129688,
2011-08-21, 02:26:04,VALID,917.528,VALID,0,VALID,96.6344,VALID,0,VALID,18.5525,VALID,155,VALID,0.403906,
2011-08-21, 02:27:04,VALID,917.525,VALID,0,VALID,96.6192,VALID,0,VALID,18.533,VALID,160,VALID,0.0136719,
2011-08-21, 02:28:04,VALID,917.525,VALID,0,VALID,96.6802,VALID,0,VALID,18.6124,VALID,160,VALID,0.378125,
2011-08-21, 02:29:04,VALID,917.524,VALID,0,VALID,96.7183,VALID,0,VALID,18.5914,VALID,183,VALID,0.876953,
2011-08-21, 02:30:04,VALID,917.51,VALID,0,VALID,96.7869,VALID,0,VALID,18.6708,VALID,185,VALID,0.837109,
2011-08-21, 02:31:04,VALID,917.493,VALID,0,VALID,96.7945,VALID,0,VALID,18.6694,VALID,149,VALID,0.347266,
2011-08-21, 02:32:04,VALID,917.499,VALID,0,VALID,96.7945,VALID,0,VALID,18.6694,VALID,150,VALID,0.610547,
2011-08-21, 02:33:04,VALID,917.498,VALID,0,VALID,96.7869,VALID,0,VALID,18.6889,VALID,150,VALID,0.668359,
2011-08-21, 02:34:04,VALID,917.494,VALID,0,VALID,96.7945,VALID,0,VALID,18.6889,VALID,159,VALID,0.913281,
2011-08-21, 02:35:04,VALID,917.49,VALID,0,VALID,96.8403,VALID,0,VALID,18.7279,VALID,183,VALID,0.694141,
2011-08-21, 02:36:04,VALID,917.473,VALID,0,VALID,96.8098,VALID,0,VALID,18.7279,VALID,161,VALID,0.595312,
2011-08-21, 02:37:04,VALID,917.475,VALID,0,VALID,96.7945,VALID,0,VALID,18.7279,VALID,161,VALID,0.657422,
2011-08-21, 02:38:04,VALID,917.457,VALID,0,VALID,96.7716,VALID,0,VALID,18.7279,VALID,161,VALID,1.00508,
2011-08-21, 02:39:04,VALID,917.468,VALID,0,VALID,96.7945,VALID,0,VALID,18.7279,VALID,169,VALID,0.660547,
2011-08-21, 02:40:04,VALID,917.474,VALID,0,VALID,96.7869,VALID,0,VALID,18.7279,VALID,154,VALID,0.941797,
2011-08-21, 02:41:04,VALID,917.474,VALID,0,VALID,96.825,VALID,0,VALID,18.7669,VALID,144,VALID,0.801953,
2011-08-21, 02:42:04,VALID,917.494,VALID,0,VALID,96.825,VALID,0,VALID,18.7669,VALID,144,VALID,0.960938,
2011-08-21, 02:43:04,VALID,917.468,VALID,0,VALID,96.8098,VALID,0,VALID,18.7864,VALID,144,VALID,0.676562,
2011-08-21, 02:44:04,VALID,917.446,VALID,0,VALID,96.764,VALID,0,VALID,18.7878,VALID,143,VALID,0.966016,
2011-08-21, 02:45:04,VALID,917.448,VALID,0,VALID,96.8326,VALID,0,VALID,18.7669,VALID,143,VALID,0.8375,
2011-08-21, 02:46:04,VALID,917.424,VALID,0,VALID,96.7411,VALID,0,VALID,18.7474,VALID,143,VALID,0.63125,
2011-08-21, 02:47:04,VALID,917.397,VALID,0,VALID,96.7335,VALID,0,VALID,18.8073,VALID,139,VALID,1.05898,
2011-08-21, 02:48:04,VALID,917.367,VALID,0,VALID,96.8174,VALID,0,VALID,18.8254,VALID,159,VALID,0.930469,
2011-08-21, 02:49:04,VALID,917.375,VALID,0,VALID,96.764,VALID,0,VALID,18.8644,VALID,159,VALID,0.8875,
2011-08-21, 02:50:04,VALID,917.348,VALID,0,VALID,96.6802,VALID,0,VALID,18.8644,VALID,159,VALID,0.914844,
2011-08-21, 02:51:04,VALID,917.304,VALID,0,VALID,96.5429,VALID,0,VALID,18.8449,VALID,159,VALID,0.927734,
2011-08-21, 02:52:04,VALID,917.252,VALID,0,VALID,96.4972,VALID,0,VALID,18.8853,VALID,159,VALID,1.12148,
2011-08-21, 02:53:04,VALID,917.278,VALID,0,VALID,96.4591,VALID,0,VALID,18.9034,VALID,167,VALID,0.430859,
2011-08-21, 02:54:04,VALID,917.268,VALID,0,VALID,96.2533,VALID,0,VALID,18.8853,VALID,167,VALID,0.665625,
2011-08-21, 02:55:04,VALID,917.259,VALID,0,VALID,96.1465,VALID,0,VALID,18.8644,VALID,167,VALID,0.394141,
2011-08-21, 02:56:04,VALID,917.255,VALID,0,VALID,96.0627,VALID,0,VALID,18.8658,VALID,167,VALID,0.695703,
2011-08-21, 02:57:04,VALID,917.269,VALID,0,VALID,96.0245,VALID,0,VALID,18.8434,VALID,167,VALID,0.726953,
2011-08-21, 02:58:04,VALID,917.242,VALID,0,VALID,95.9559,VALID,0,VALID,18.8644,VALID,167,VALID,0.658984,
2011-08-21, 02:59:04,VALID,917.258,VALID,0,VALID,95.895,VALID,0,VALID,18.9034,VALID,167,VALID,0.783984,
2011-08-21, 03:00:04,VALID,917.262,VALID,0,VALID,95.7501,VALID,0,VALID,18.9034,VALID,167,VALID,0.46875,
2011-08-21, 03:01:04,VALID,917.261,VALID,0,VALID,95.6129,VALID,0,VALID,18.9034,VALID,167,VALID,0.999609,
2011-08-21, 03:02:04,VALID,917.235,VALID,0,VALID,95.529,VALID,0,VALID,18.9229,VALID,120,VALID,1.04727,
2011-08-21, 03:03:04,VALID,917.195,VALID,0,VALID,95.4528,VALID,0.107441,VALID,18.9424,VALID,119,VALID,0.764063,
2011-08-21, 03:04:04,VALID,917.197,VALID,0,VALID,95.3156,VALID,0,VALID,18.9424,VALID,119,VALID,0.642578,
2011-08-21, 03:05:04,VALID,917.151,VALID,0,VALID,95.1555,VALID,0,VALID,18.9229,VALID,119,VALID,0.871094,
2011-08-21, 03:06:04,VALID,917.145,VALID,0,VALID,95.1326,VALID,0,VALID,18.9229,VALID,119,VALID,0.539453,
2011-08-21, 03:07:04,VALID,917.145,VALID,0,VALID,95.0869,VALID,0,VALID,18.9034,VALID,119,VALID,0.997266,
2011-08-21, 03:08:04,VALID,917.118,VALID,0,VALID,95.1097,VALID,0,VALID,18.9048,VALID,120,VALID,0.394922,
2011-08-21, 03:09:04,VALID,917.114,VALID,0,VALID,95.1555,VALID,0.107441,VALID,18.9229,VALID,120,VALID,0.610937,
2011-08-21, 03:10:04,VALID,917.107,VALID,0,VALID,95.0564,VALID,0,VALID,18.8839,VALID,119,VALID,0.648438,
2011-08-21, 03:11:04,VALID,917.154,VALID,0,VALID,94.9878,VALID,0,VALID,18.8644,VALID,131,VALID,0.655859,
2011-08-21, 03:12:04,VALID,917.13,VALID,0,VALID,94.8887,VALID,0.107441,VALID,18.8449,VALID,134,VALID,0.667969,
2011-08-21, 03:13:04,VALID,917.124,VALID,0,VALID,94.9344,VALID,0,VALID,18.8059,VALID,134,VALID,0.478125,
2011-08-21, 03:14:04,VALID,917.113,VALID,0,VALID,94.9801,VALID,0,VALID,18.8254,VALID,135,VALID,0.873047,
2011-08-21, 03:15:04,VALID,917.11,VALID,0,VALID,95.186,VALID,0,VALID,18.8644,VALID,135,VALID,0.275,
2011-08-21, 03:16:04,VALID,917.11,VALID,0,VALID,94.66,VALID,0,VALID,18.7474,VALID,135,VALID,0.812891,
2011-08-21, 03:17:04,VALID,917.121,VALID,0,VALID,95.0488,VALID,0,VALID,18.7474,VALID,135,VALID,0.939453,
2011-08-21, 03:18:04,VALID,917.123,VALID,0,VALID,95.2927,VALID,0,VALID,18.7474,VALID,135,VALID,0.66875,
2011-08-21, 03:19:04,VALID,917.092,VALID,0,VALID,95.4833,VALID,0,VALID,18.7669,VALID,135,VALID,0.784375,
2011-08-21, 03:20:04,VALID,917.113,VALID,0,VALID,95.4909,VALID,0,VALID,18.7669,VALID,135,VALID,1.10195,
2011-08-21, 03:21:04,VALID,917.108,VALID,0,VALID,95.6205,VALID,0,VALID,18.7474,VALID,135,VALID,0.940625,
2011-08-21, 03:22:04,VALID,917.084,VALID,0,VALID,95.7349,VALID,0,VALID,18.7864,VALID,135,VALID,0.680469,
2011-08-21, 03:23:04,VALID,917.067,VALID,0,VALID,95.8035,VALID,0,VALID,18.8463,VALID,135,VALID,0.536719,
2011-08-21, 03:24:04,VALID,917.077,VALID,0,VALID,95.7806,VALID,0,VALID,18.8644,VALID,135,VALID,0.601563,
2011-08-21, 03:25:04,VALID,917.077,VALID,0,VALID,95.6967,VALID,0,VALID,18.8449,VALID,135,VALID,0.615625,
2011-08-21, 03:26:04,VALID,917.097,VALID,0,VALID,95.6739,VALID,0,VALID,18.9048,VALID,135,VALID,0.569922,
2011-08-21, 03:27:04,VALID,917.081,VALID,0,VALID,95.5824,VALID,0,VALID,18.8644,VALID,135,VALID,0.522656,
2011-08-21, 03:28:04,VALID,917.079,VALID,0,VALID,95.4452,VALID,0,VALID,18.8463,VALID,135,VALID,0.687891,
2011-08-21, 03:29:04,VALID,917.057,VALID,0,VALID,95.2927,VALID,0,VALID,18.8059,VALID,135,VALID,0.7,
2011-08-21, 03:30:04,VALID,917.055,VALID,0,VALID,95.3308,VALID,0,VALID,18.8254,VALID,147,VALID,0.922656,
2011-08-21, 03:31:04,VALID,917.074,VALID,0,VALID,95.1631,VALID,0,VALID,18.7864,VALID,153,VALID,0.715234,
2011-08-21, 03:32:04,VALID,917.056,VALID,0,VALID,94.8963,VALID,0,VALID,18.7084,VALID,153,VALID,0.539063,
2011-08-21, 03:33:04,VALID,917.044,VALID,0,VALID,95.0716,VALID,0,VALID,18.7084,VALID,153,VALID,0.974609,
2011-08-21, 03:34:04,VALID,917.04,VALID,0,VALID,94.8277,VALID,0,VALID,18.6513,VALID,153,VALID,0.586328,
2011-08-21, 03:35:04,VALID,917.02,VALID,0,VALID,94.7362,VALID,0,VALID,18.5914,VALID,173,VALID,1.13477,
2011-08-21, 03:36:04,VALID,917.025,VALID,0,VALID,94.9496,VALID,0,VALID,18.5914,VALID,173,VALID,0.482812,
2011-08-21, 03:37:04,VALID,917.018,VALID,0,VALID,94.9649,VALID,0,VALID,18.572,VALID,173,VALID,0.739453,
2011-08-21, 03:38:04,VALID,917.01,VALID,0,VALID,95.2698,VALID,0,VALID,18.6304,VALID,170,VALID,0.610156,
2011-08-21, 03:39:04,VALID,916.976,VALID,0,VALID,95.1936,VALID,0,VALID,18.6109,VALID,170,VALID,0.679297,
2011-08-21, 03:40:04,VALID,916.946,VALID,0,VALID,95.2698,VALID,0,VALID,18.6109,VALID,170,VALID,0.841016,
2011-08-21, 03:41:04,VALID,916.983,VALID,0,VALID,95.3689,VALID,0,VALID,18.6513,VALID,170,VALID,0.780859,
2011-08-21, 03:42:04,VALID,916.953,VALID,0,VALID,95.4528,VALID,0,VALID,18.6304,VALID,170,VALID,0.333984,
2011-08-21, 03:43:04,VALID,916.902,VALID,0,VALID,95.529,VALID,0,VALID,18.6889,VALID,161,VALID,1.27656,
2011-08-21, 03:44:04,VALID,916.915,VALID,0,VALID,95.5976,VALID,0,VALID,18.7474,VALID,156,VALID,1.17891,